Theta_e
311 310 310 310 311 311 310 311 312 312 312 314 313 314 312 306 302 299 299 301 302 307 310 305 309 312 313 312 312 310 309 311 310 305 303 302 301 305 306 305 306 305 303 303 304 304 305 307 308 310 310 310 309 309 309 308 308 310 308 308 309 308 308 308 307 312 313 314 313 313 313 314 314 314
313 312 313 312 311 311 311 311 309 310 311 312 311 312 312 309 304 301 299 300 303 302 305 305 305 309 311 312 312 312 311 313 312 307 304 302 301 305 305 305 306 305 302 302 301 303 303 304 306 308 308 308 307 307 308 309 308 307 307 305 307 308 309 309 308 310 311 311 311 311 311 312 312 312
311 310 310 310 311 312 311 311 311 310 310 311 309 309 311 310 306 304 302 298 302 303 302 304 307 307 308 310 309 311 310 313 312 308 305 303 305 306 304 305 305 304 305 303 303 307 306 304 304 307 307 307 306 306 306 307 306 306 306 304 305 306 308 307 306 307 308 309 309 309 309 310 310 310
310 309 309 309 310 310 309 309 310 308 309 310 309 309 309 309 307 305 302 300 301 305 301 302 304 306 305 305 305 304 307 312 312 308 306 305 308 304 302 304 304 303 304 304 305 310 310 308 307 304 306 306 305 306 304 304 304 304 304 303 304 304 306 305 305 305 306 307 307 308 308 308 308 308
311 310 308 309 310 310 310 309 308 309 309 309 310 310 309 307 306 305 302 300 300 303 307 303 303 305 304 302 303 303 303 306 308 310 305 304 303 302 301 301 303 302 302 302 303 304 306 307 308 301 298 299 300 301 302 303 303 303 303 300 301 303 304 303 303 303 305 305 306 306 306 306 306 306
314 309 308 310 311 312 310 311 309 310 310 308 307 309 309 308 309 306 304 301 299 299 303 304 306 304 304 302 302 302 302 303 305 306 304 304 303 303 301 300 301 302 303 302 301 302 302 302 302 300 299 299 300 301 301 301 301 301 301 299 300 302 303 302 302 301 303 303 305 305 305 304 304 305
313 311 311 311 312 315 312 312 312 311 311 311 309 309 310 310 309 310 308 304 302 300 302 305 304 306 309 303 304 306 306 306 307 304 305 303 304 306 302 300 301 301 301 301 301 301 301 302 301 301 301 300 300 300 300 300 300 299 299 299 300 301 300 299 299 300 300 303 304 304 304 302 303 305
317 315 313 313 313 313 312 312 312 311 311 311 310 310 309 310 311 311 311 309 305 302 303 305 305 309 307 308 306 308 309 307 306 305 306 306 304 305 306 303 301 301 301 301 301 301 302 301 301 301 301 301 301 300 301 300 300 299 299 299 299 299 299 298 297 297 299 301 301 302 302 301 303 306
316 316 315 316 316 313 314 313 311 312 311 311 311 311 310 309 311 314 313 311 311 308 306 306 308 308 309 308 307 307 306 307 306 307 305 305 305 305 306 306 306 303 302 302 302 301 301 302 302 301 301 301 301 300 301 301 300 300 300 300 299 299 298 298 297 297 297 298 298 300 300 300 302 305
316 314 316 317 316 317 316 315 313 312 311 312 311 311 311 310 310 310 310 312 312 311 309 307 308 310 308 307 309 308 306 307 306 306 307 308 309 308 307 308 307 306 302 301 301 300 300 302 301 302 302 302 301 301 301 301 301 300 300 300 300 300 299 298 297 297 297 296 296 296 298 299 301 303
318 317 317 316 317 317 317 317 316 313 312 313 309 310 311 311 309 309 309 310 310 309 308 308 308 307 309 310 307 309 307 307 306 305 304 304 306 306 307 306 308 307 304 302 301 302 301 302 301 302 302 302 302 302 301 302 302 301 299 298 298 299 299 298 298 297 297 296 296 296 296 297 299 300
317 317 318 318 317 316 315 315 316 316 316 314 313 311 311 310 310 308 307 307 307 306 306 306 304 306 306 305 307 308 306 304 305 306 304 302 302 304 305 305 305 307 306 305 306 305 304 304 304 303 302 303 302 302 302 303 303 302 300 298 298 298 299 298 298 298 298 297 297 296 296 296 295 297
315 317 317 317 315 318 315 310 310 311 315 315 312 309 310 309 309 307 306 306 304 303 304 304 304 305 304 303 303 303 301 300 302 304 303 301 303 303 302 304 305 305 303 303 303 303 304 304 303 303 302 303 304 303 304 304 303 302 299 298 298 298 298 298 298 298 297 297 297 296 296 296 296 295
315 315 314 317 322 315 312 307 300 300 303 308 311 308 307 308 308 306 304 304 304 304 302 302 301 302 302 302 302 301 303 304 302 301 301 300 300 299 299 300 300 303 302 301 300 301 303 302 301 302 301 303 303 302 302 302 302 302 299 299 298 298 298 298 297 297 297 297 297 296 296 296 295 295
315 314 317 314 316 314 310 302 297 297 297 296 297 298 302 307 307 304 303 303 302 301 302 301 301 299 300 302 302 300 300 301 301 299 298 299 299 297 295 295 299 301 302 299 298 298 301 301 300 300 301 302 302 302 302 301 302 300 299 299 298 298 298 298 297 297 297 297 297 296 296 296 296 296
315 316 317 314 315 313 311 305 302 299 296 295 295 294 294 294 295 299 303 301 300 299 299 300 300 299 299 299 299 299 298 299 298 299 298 297 296 294 294 294 294 299 301 298 297 297 300 300 300 299 301 302 302 303 302 300 300 300 300 299 299 298 298 297 297 297 296 296 296 295 295 295 295 294
314 315 317 316 316 315 318 313 307 304 300 297 296 296 295 295 295 293 294 298 302 301 299 298 299 300 299 298 299 299 300 298 297 296 296 294 294 294 294 293 293 297 299 298 296 295 297 297 298 299 300 300 301 302 300 299 300 299 299 299 299 298 297 297 297 296 296 296 295 295 295 295 294 294
312 314 315 312 306 303 304 307 309 306 304 303 303 302 301 300 299 296 295 295 296 300 302 300 299 299 300 299 298 299 299 298 296 294 295 294 294 293 293 294 296 298 301 297 294 293 295 297 297 295 297 298 298 298 299 298 299 299 299 298 298 298 297 297 296 296 296 296 295 295 295 295 294 294
308 311 313 308 303 301 299 298 300 306 307 306 306 303 301 299 297 296 296 297 299 300 301 300 299 297 298 299 297 297 298 298 297 297 295 295 294 294 294 293 294 296 298 297 295 292 293 291 292 292 294 296 295 296 297 298 299 299 298 298 298 297 296 296 296 296 296 296 296 295 295 294 294 293
306 309 307 303 300 299 297 295 294 298 303 306 306 301 300 296 293 292 294 292 295 297 296 296 295 295 295 296 295 295 295 295 295 295 293 293 292 291 289 289 291 292 293 295 293 291 290 291 292 292 294 294 293 294 294 296 299 298 298 297 297 297 296 296 296 296 296 296 295 295 295 294 294 293
306 306 303 301 299 298 296 294 293 297 301 304 304 302 299 297 294 293 294 292 291 292 292 293 293 292 291 291 291 291 294 293 292 291 290 290 290 289 287 288 288 288 290 293 293 291 289 291 291 291 292 292 292 292 293 294 296 296 296 296 296 296 296 296 296 296 296 296 296 295 295 295 294 294
303 305 305 303 298 297 295 293 295 296 301 301 300 302 301 298 296 295 297 297 294 291 291 290 290 290 290 291 291 292 291 291 294 291 290 289 290 289 288 286 287 290 291 291 292 289 288 289 290 289 290 290 290 292 292 293 294 295 295 295 295 295 295 295 295 295 295 296 295 295 295 294 294 293
297 298 300 301 298 297 294 293 295 296 299 300 300 301 300 298 295 294 296 296 296 296 296 295 294 294 294 292 290 292 292 291 294 292 291 290 290 288 288 289 289 288 287 291 292 289 287 288 288 288 287 286 288 289 291 292 292 292 292 293 292 294 294 294 294 294 294 295 295 295 294 294 294 293
294 293 293 294 291 291 292 292 293 294 295 298 297 298 297 294 293 292 295 295 293 294 295 293 293 294 293 293 292 292 292 293 295 291 292 291 292 290 290 289 288 286 286 289 291 288 287 287 287 287 287 285 281 286 289 289 289 291 290 291 290 293 293 293 293 294 294 294 294 294 294 294 294 291
295 293 292 291 291 291 291 292 292 292 292 293 294 293 292 292 292 292 292 293 295 294 294 293 293 293 292 293 293 294 294 294 292 292 291 292 293 293 290 288 287 286 287 290 293 289 286 287 286 286 286 285 286 286 286 288 288 289 290 290 289 290 290 291 292 291 292 293 293 293 293 293 294 294
295 293 292 292 291 290 290 291 291 291 291 291 292 290 289 288 288 289 290 290 290 292 293 292 290 289 289 290 291 291 291 292 294 292 291 291 292 292 291 291 288 287 287 290 292 289 287 285 286 286 285 284 285 285 285 286 288 289 288 290 289 289 290 290 289 289 290 290 291 292 292 293 293 294
296 293 292 293 292 290 290 290 290 290 290 290 289 288 288 287 289 290 288 289 289 289 289 289 289 289 290 290 289 289 290 290 290 290 291 291 291 291 291 291 291 290 289 289 293 290 288 286 286 286 286 286 285 286 286 285 287 288 287 287 288 289 290 288 288 289 290 290 291 293 292 292 292 293
296 294 292 292 289 290 290 290 290 289 290 288 288 288 288 288 290 289 288 289 290 288 286 287 288 290 288 288 288 289 290 291 289 290 290 289 290 289 290 289 290 290 290 290 290 289 288 287 287 287 288 288 287 286 285 287 287 286 287 289 289 289 288 289 290 291 292 292 292 292 292 292 293 293
296 292 291 289 289 289 289 289 289 289 288 287 287 287 288 292 287 288 288 289 289 288 287 288 288 289 289 289 289 289 288 288 290 289 290 289 289 289 288 288 288 289 291 291 289 288 288 288 288 289 289 289 288 288 288 287 287 286 287 288 287 287 288 290 290 290 291 292 291 292 291 292 292 293
290 289 289 289 289 289 289 290 288 287 287 288 288 288 289 287 287 289 288 287 287 287 287 287 287 287 287 287 288 288 288 288 287 287 287 287 287 288 288 287 287 288 289 290 290 290 289 289 288 288 289 290 289 288 288 288 287 287 286 287 288 289 287 287 288 290 290 290 291 291 292 292 292 292
290 289 290 289 289 289 290 290 290 290 289 287 287 287 288 287 287 289 288 288 288 287 287 286 287 287 287 287 286 286 286 286 286 286 286 285 285 287 286 285 285 286 288 289 291 291 291 291 291 291 290 290 290 289 289 289 288 288 287 288 288 285 287 288 288 287 289 290 291 290 291 291 291 292
291 290 289 289 289 289 290 290 289 286 287 286 287 287 287 287 288 292 292 291 288 288 287 286 284 283 285 284 285 285 285 285 286 286 287 286 285 285 286 284 284 285 287 289 290 292 291 292 291 291 290 289 288 289 290 289 288 289 289 289 289 289 288 288 289 290 291 291 289 287 288 288 289 291
291 290 290 288 290 288 287 286 288 286 286 286 287 290 290 288 289 289 287 287 286 287 285 285 285 282 284 284 283 283 284 284 285 285 285 286 287 286 286 285 286 286 286 287 288 289 290 290 291 291 291 291 291 291 289 287 288 289 288 289 289 289 289 290 290 290 291 290 288 288 287 288 289 290
289 287 287 287 288 288 286 286 286 285 285 285 285 285 287 285 286 285 285 287 287 284 285 284 282 282 281 282 282 282 283 283 283 285 288 287 287 286 286 285 286 287 286 287 287 288 289 289 289 290 290 290 291 291 291 289 288 289 289 289 289 288 290 290 290 290 290 289 288 287 286 285 286 289
288 287 287 288 287 286 286 286 286 285 285 286 284 285 284 283 284 283 284 285 283 283 282 281 282 281 282 283 282 282 284 284 283 282 284 285 287 286 286 285 286 286 286 286 287 288 288 288 289 288 288 287 287 288 293 292 289 289 289 289 289 288 289 290 289 289 289 288 287 286 285 285 286 289
288 288 288 288 288 287 286 286 285 285 285 286 286 285 284 285 284 285 284 283 283 282 282 281 281 281 281 283 282 282 283 283 282 282 284 284 285 285 286 286 285 286 286 286 286 287 288 288 287 286 285 285 285 284 285 291 292 290 287 286 287 287 288 288 288 287 287 286 285 285 285 285 286 288
289 288 288 289 289 288 288 286 286 285 285 285 284 284 284 283 285 282 283 284 284 283 282 280 281 281 281 281 282 282 282 282 283 283 284 285 286 285 285 285 285 286 285 286 287 287 288 287 287 286 285 284 284 283 285 285 288 291 290 287 286 287 287 287 285 284 285 285 285 285 286 285 285 287
289 289 289 289 289 289 288 285 285 285 285 285 284 284 285 284 284 285 283 284 284 282 282 281 282 281 281 281 281 280 280 281 283 283 284 285 285 285 285 285 285 285 285 286 287 287 287 287 286 286 285 284 283 284 284 285 285 287 291 289 286 287 287 286 285 283 284 284 284 285 286 285 285 286
291 289 290 290 290 290 287 286 286 286 286 285 285 284 284 283 283 284 284 283 282 281 281 281 281 282 281 280 281 282 281 281 282 283 284 284 284 284 285 285 284 285 285 285 286 287 287 286 286 286 286 285 284 284 285 284 285 287 289 290 288 286 286 285 285 286 285 285 285 286 286 287 289 289
293 293 292 292 291 288 287 286 285 285 285 285 284 283 283 283 284 284 282 282 281 280 281 281 282 283 282 281 281 279 280 281 281 282 283 284 285 285 284 285 285 285 285 285 285 286 286 286 287 287 287 287 287 287 287 286 286 287 286 286 289 287 286 285 285 285 285 285 284 283 283 285 284 286
293 292 291 291 290 289 288 287 286 286 285 284 284 284 284 283 283 282 282 281 282 280 280 279 281 282 281 281 281 281 281 281 282 283 284 285 285 285 285 285 285 285 285 285 285 285 286 287 288 287 287 287 287 287 286 285 285 286 286 286 288 288 288 288 287 285 283 283 283 282 282 283 284 285
291 290 290 289 289 288 288 288 287 285 285 283 283 282 283 282 281 286 283 283 281 280 280 280 281 281 281 280 280 281 279 281 281 282 284 285 285 285 285 285 285 285 285 284 285 286 288 289 288 288 287 286 286 285 284 285 285 286 286 287 285 287 288 287 287 286 284 283 282 282 282 283 284 284
288 287 288 287 288 288 287 286 286 285 284 283 282 284 281 279 279 279 279 281 281 281 280 280 280 280 278 279 279 280 281 283 284 284 284 285 284 284 285 285 285 285 285 285 286 286 287 287 288 287 286 285 285 285 285 285 286 286 286 286 285 285 286 287 287 287 287 287 286 285 284 282 281 281
287 289 287 287 287 286 286 286 285 284 284 284 284 282 283 283 283 282 281 281 281 280 280 280 280 280 280 279 279 280 283 285 285 285 285 285 285 285 285 285 286 286 286 285 286 286 287 287 287 286 285 285 285 285 285 286 286 286 286 286 285 285 285 284 283 285 286 286 286 286 286 286 285 285
285 285 285 285 284 286 285 285 285 284 285 284 283 283 283 283 282 281 281 281 280 280 280 279 279 279 279 279 279 281 284 286 285 284 284 285 285 286 286 286 285 285 286 286 285 286 286 286 286 286 285 286 285 285 286 286 286 286 285 285 284 284 284 284 283 283 283 283 285 286 286 286 286 286
Wind_Speed
4 4 5 4 5 5 4 5 5 5 4 3 3 4 7 6 8 4 3 3 3 1 3 4 0 4 6 5 5 5 4 5 5 3 4 4 3 4 5 6 6 7 7 7 6 6 5 5 4 4 5 5 5 5 4 4 5 5 6 6 6 5 6 6 6 6 7 7 7 6 7 8 8 8
4 4 5 4 4 3 4 5 5 6 4 5 5 3 3 7 8 6 6 3 0 3 1 1 3 2 5 6 5 5 5 8 7 4 4 3 3 6 5 5 5 5 6 7 7 6 5 4 3 3 3 2 2 3 3 3 4 5 5 5 5 6 6 6 7 8 8 8 8 8 9 9 9 10
5 4 5 4 5 4 5 6 7 5 4 4 5 6 6 6 6 8 6 6 1 2 3 0 3 5 4 5 5 5 5 7 7 6 5 4 7 8 6 7 7 6 6 6 7 7 7 6 4 3 2 1 1 1 2 2 3 4 5 5 5 6 6 6 7 8 8 8 8 8 9 9 9 10
4 5 5 4 4 4 5 6 5 7 6 4 7 6 7 7 6 7 6 6 4 0 4 4 4 6 5 4 5 5 5 7 10 5 5 5 8 6 4 7 7 7 7 7 7 8 8 7 7 4 3 2 2 2 2 1 1 2 2 3 4 5 5 6 6 8 8 8 8 8 8 9 9 10
3 4 5 5 4 4 5 4 5 6 6 5 7 6 7 7 5 8 6 6 4 1 1 4 4 4 6 3 4 5 5 5 5 5 4 5 4 4 4 4 6 6 6 6 7 6 7 7 6 6 5 4 4 4 3 2 2 2 1 1 2 3 4 5 5 6 7 8 8 9 9 10 10 10
4 4 5 4 4 3 4 4 5 6 7 4 5 7 7 5 4 4 4 3 4 4 0 2 1 4 5 4 3 5 5 5 4 4 3 3 4 4 4 4 4 7 7 7 7 7 7 7 6 7 6 6 6 6 5 5 4 4 4 3 1 1 2 3 4 5 7 8 8 8 8 9 10 12
3 4 4 4 3 3 5 5 4 6 6 5 6 5 5 6 4 3 4 3 2 4 2 1 0 0 1 5 6 5 5 5 5 3 4 5 5 2 3 3 3 7 8 8 9 9 9 7 6 6 7 6 6 7 7 6 6 6 6 5 3 1 1 0 1 3 4 6 7 8 8 9 10 11
4 3 3 2 2 3 5 4 4 4 6 6 5 5 4 5 4 4 4 2 3 2 4 1 2 2 3 1 4 5 1 1 3 5 6 3 3 2 4 4 4 6 10 10 10 10 9 8 8 7 7 7 7 7 8 8 8 7 6 5 4 4 4 3 2 2 2 4 6 7 7 9 10 11
2 3 3 2 3 4 5 4 4 5 6 5 5 5 4 5 4 4 4 4 4 4 2 1 1 2 0 0 0 0 2 1 1 1 2 4 5 4 5 4 5 6 10 10 10 10 8 8 9 9 9 8 8 9 10 10 10 9 8 6 6 6 6 5 4 3 3 4 4 4 6 7 9 11
2 2 3 3 3 4 5 4 3 4 5 5 4 5 5 4 5 6 6 5 6 6 3 2 2 3 1 1 1 2 3 2 2 4 5 4 4 2 2 1 2 2 3 4 5 7 7 10 12 11 10 10 10 10 11 12 11 10 9 8 7 7 7 6 6 5 5 4 4 4 5 7 8 10
3 4 3 2 3 3 3 3 3 4 4 5 4 4 4 4 5 6 5 5 5 4 3 1 1 1 2 0 0 0 4 5 4 3 3 4 3 2 0 2 3 1 2 4 8 7 5 6 5 7 9 10 11 11 11 12 11 9 10 10 9 8 8 8 7 6 5 5 5 5 5 5 6 8
3 3 3 3 1 3 3 3 3 3 4 4 4 3 3 4 5 5 4 4 4 3 1 1 0 1 1 2 0 2 4 4 4 1 3 1 1 2 2 1 2 3 4 5 5 2 2 4 6 9 9 10 10 10 10 10 10 9 9 9 9 9 9 9 8 6 5 5 5 6 7 6 5 6
2 3 3 3 2 4 8 9 7 6 5 5 5 3 4 4 5 4 4 4 4 3 1 1 3 3 3 2 0 2 2 3 4 1 2 2 4 3 6 7 5 5 4 4 4 5 2 3 4 5 6 7 8 8 9 8 9 7 6 9 10 10 9 9 7 6 6 6 7 8 8 7 5 5
2 2 2 2 7 8 9 8 9 10 10 8 6 3 4 4 4 3 4 3 2 3 5 3 2 5 5 5 1 2 1 0 2 5 4 4 3 2 4 3 2 3 6 7 7 8 7 6 7 7 6 7 5 5 5 6 6 6 6 8 9 10 9 8 7 7 8 8 8 9 8 7 6 7
4 2 3 3 7 7 7 7 10 10 10 11 10 10 8 6 4 3 4 3 3 3 4 1 3 3 4 5 4 2 2 3 4 2 2 4 5 4 3 3 7 2 7 4 4 7 6 4 6 6 6 7 6 5 6 7 8 7 6 7 8 9 9 9 8 9 10 10 10 10 9 6 6 8
4 4 4 3 3 4 6 7 7 8 9 10 10 10 10 10 11 7 4 3 3 2 4 4 2 2 2 2 3 2 2 3 4 4 4 4 3 3 3 2 3 5 4 4 5 7 6 4 4 5 7 6 5 6 6 6 5 6 6 5 7 8 9 10 10 11 11 11 10 10 9 7 7 8
3 4 5 4 3 5 8 6 5 7 7 7 11 11 10 9 10 10 9 7 5 4 4 4 2 1 2 3 2 2 1 1 3 2 3 1 1 0 1 3 3 7 5 5 4 4 6 3 4 6 7 6 5 5 5 7 5 5 6 6 8 9 9 10 10 11 13 12 10 11 10 8 8 9
2 4 6 6 5 5 5 3 4 5 6 6 6 5 5 5 6 8 9 8 6 4 4 4 3 1 2 4 1 1 0 2 1 1 1 0 1 2 3 3 4 6 5 4 3 3 5 3 3 3 5 4 5 6 8 10 11 10 9 9 9 7 7 8 10 11 12 11 11 12 11 9 9 10
4 4 7 7 7 5 5 3 3 4 4 4 4 5 5 4 4 4 4 4 4 4 5 6 6 4 4 4 3 1 2 3 3 2 1 1 2 2 2 2 3 5 4 1 1 2 3 3 4 3 4 4 5 4 7 12 15 17 18 17 14 10 7 8 9 11 13 13 12 13 13 11 10 11
5 6 8 8 7 5 5 3 6 5 2 3 5 4 4 5 4 4 2 4 4 4 4 4 5 4 3 4 3 3 3 3 2 1 2 1 3 3 4 3 4 3 5 4 6 3 3 3 5 4 5 5 6 5 5 9 13 14 15 15 13 11 8 9 10 12 13 13 13 13 13 13 12 10
6 6 7 7 6 6 4 4 9 10 9 6 5 5 4 4 4 3 1 2 4 5 5 6 6 6 6 6 6 5 4 3 2 2 2 1 0 2 2 3 2 3 2 5 6 1 2 5 5 6 4 5 4 4 6 6 8 11 12 12 13 13 12 11 11 11 12 12 12 11 12 12 11 9
7 7 12 9 7 7 4 9 12 11 9 6 4 5 6 5 4 1 0 1 2 2 4 4 4 4 4 3 3 4 6 5 3 1 2 2 1 1 1 3 2 5 3 4 5 3 2 3 5 5 4 3 3 4 5 7 9 12 11 11 10 11 11 11 11 12 12 11 10 10 10 10 8 5
6 5 6 10 10 8 8 13 12 12 10 6 5 6 7 5 4 1 1 2 2 1 1 1 1 2 2 2 3 3 4 4 3 2 3 1 0 1 3 3 4 5 2 4 3 5 3 6 5 4 5 3 4 2 6 5 6 6 6 6 7 11 10 11 11 12 12 9 9 8 8 9 6 4
4 4 5 6 11 13 13 13 13 11 11 8 5 6 7 6 3 1 1 1 2 1 0 2 2 3 4 3 2 3 3 2 2 3 4 3 3 2 1 1 0 1 2 3 3 3 2 2 3 1 1 2 4 3 2 4 2 4 3 5 6 7 8 10 9 11 10 9 11 11 9 8 6 3
7 5 4 4 7 13 13 13 13 12 11 9 6 5 4 2 1 1 1 1 3 1 2 2 3 3 3 4 6 7 6 4 1 1 1 2 2 1 0 0 1 2 2 1 2 3 1 1 2 1 1 1 3 4 3 3 2 3 1 3 5 5 4 6 5 6 7 10 11 11 9 9 9 5
6 7 7 6 7 12 13 13 12 13 12 10 7 5 7 4 5 1 1 1 2 2 3 2 1 3 7 7 6 6 5 5 3 1 0 1 1 0 1 0 1 2 3 4 3 1 0 2 2 3 2 1 4 2 5 4 3 3 2 4 3 5 4 5 5 6 6 6 6 6 8 10 8 7
7 5 6 5 9 12 13 12 12 12 12 9 6 9 6 5 3 2 1 1 2 2 1 1 3 5 6 6 5 5 5 3 3 5 5 5 4 3 3 2 0 1 3 3 2 1 0 2 2 3 3 2 5 4 3 5 5 3 3 3 3 4 5 4 6 6 6 6 6 9 9 8 9 9
8 8 6 7 10 12 12 12 11 10 9 7 8 7 6 5 4 3 3 3 3 2 4 5 4 5 4 5 5 4 3 4 3 3 3 3 2 2 3 3 2 1 2 2 2 2 2 2 3 3 3 4 5 6 7 4 5 5 6 5 4 4 5 4 6 5 5 5 5 5 5 6 5 6
7 9 12 11 11 11 12 12 10 8 8 9 7 6 4 3 3 3 2 2 4 5 4 3 2 4 4 4 3 2 3 4 5 4 4 4 3 3 2 2 3 3 3 3 4 3 3 2 4 4 4 3 5 5 5 6 5 6 4 6 8 4 5 6 5 4 6 5 5 5 5 5 6 5
14 13 12 12 12 11 9 7 5 5 4 5 6 3 3 2 2 1 2 3 4 3 4 4 5 3 2 2 2 2 4 7 6 4 5 5 6 6 6 6 6 5 5 5 5 5 5 5 4 4 5 5 4 5 5 6 7 6 4 4 6 7 4 2 4 5 5 5 5 5 5 4 6 6
9 10 9 8 7 6 7 7 6 6 5 3 2 1 1 1 1 1 3 3 4 4 6 5 3 1 2 1 4 6 6 5 3 2 3 5 6 5 5 5 6 6 6 4 5 5 5 5 5 4 5 6 5 5 6 5 7 7 6 5 4 6 7 5 5 5 5 5 5 5 4 5 5 6
6 7 6 7 4 5 4 4 4 3 2 1 1 1 0 0 2 1 1 7 5 4 4 3 2 2 3 3 2 3 3 2 1 2 5 3 4 3 4 4 5 5 5 4 4 5 5 4 5 5 5 5 6 6 4 4 5 6 7 6 5 5 6 6 7 6 5 4 4 5 5 5 5 5
4 5 5 4 4 3 5 4 4 2 1 1 1 1 1 0 1 4 2 4 5 6 4 4 3 3 3 3 1 2 3 1 1 1 3 2 2 4 2 3 5 6 6 6 5 6 6 6 5 5 5 5 4 5 6 6 5 5 6 6 5 6 6 5 5 6 3 3 4 5 6 5 5 5
6 4 5 4 4 4 5 5 4 4 3 3 3 3 3 4 5 4 4 6 4 3 4 4 5 4 3 1 1 2 1 1 1 1 2 3 3 3 4 4 4 4 4 5 6 6 6 5 5 5 5 4 4 5 5 5 6 6 5 5 5 5 5 5 4 4 4 4 5 7 7 6 6 5
5 5 5 4 4 4 5 6 7 5 5 5 3 4 4 3 5 4 7 7 4 6 4 4 4 3 2 1 1 1 0 0 1 3 3 3 4 4 4 4 4 4 4 5 5 5 5 6 6 8 7 6 5 2 5 6 5 5 4 4 3 4 5 5 5 5 5 5 4 6 6 5 6 5
7 6 7 6 6 6 6 7 5 5 7 6 6 6 4 2 1 4 2 1 4 3 2 3 3 2 1 1 2 2 2 2 1 3 5 3 4 4 3 4 4 4 4 5 5 5 5 6 5 6 7 7 7 7 5 5 3 0 5 6 5 5 6 6 5 5 6 5 4 4 6 7 7 6
7 7 7 7 7 6 7 7 6 6 6 7 7 7 5 4 6 3 3 4 6 4 4 3 2 2 3 4 3 4 3 2 3 2 3 4 3 3 3 4 4 5 5 5 5 6 4 5 5 5 6 6 6 7 7 3 6 5 3 4 5 6 6 6 6 6 5 4 5 4 5 6 7 7
8 7 6 6 6 7 7 5 6 6 6 7 7 5 4 4 5 5 3 5 5 4 3 2 1 2 2 3 2 2 3 2 2 2 2 2 4 4 3 4 4 4 5 6 5 6 5 5 5 5 5 6 6 7 8 7 7 5 3 1 5 7 5 5 6 6 7 4 4 5 4 6 7 7
9 8 7 7 7 7 6 7 7 7 6 6 6 6 6 6 7 5 5 4 4 4 3 2 3 1 1 2 1 1 1 1 2 3 3 3 3 3 4 4 5 5 5 6 6 6 5 5 5 5 4 5 6 6 5 6 8 9 7 3 4 5 5 3 5 5 5 6 5 5 5 5 8 11
7 8 8 7 6 6 7 7 7 7 7 6 5 6 7 7 6 6 6 5 5 2 3 3 3 6 6 5 6 3 3 3 3 2 3 3 3 4 4 4 5 5 5 6 6 6 6 6 5 5 5 6 6 6 6 6 7 6 7 4 2 4 4 2 2 4 4 4 5 6 7 6 5 4
7 8 7 6 7 8 8 7 7 7 7 6 6 5 6 6 5 5 5 5 4 3 5 3 5 6 5 5 4 5 4 3 3 2 2 3 5 5 5 5 5 5 5 6 6 6 7 6 7 10 8 6 6 3 3 4 6 6 6 2 3 4 2 2 2 3 2 3 4 5 6 6 5 5
4 2 1 5 7 7 7 7 6 7 6 7 7 6 6 6 7 6 5 4 6 4 5 6 5 5 5 4 3 3 3 1 2 3 4 4 5 5 5 4 5 6 5 6 7 7 8 7 7 6 5 4 3 2 5 6 7 7 6 2 1 3 6 7 7 5 2 2 4 4 4 3 3 3
1 2 3 6 7 8 7 7 7 7 7 6 5 5 4 5 5 6 7 6 4 6 5 6 4 4 4 3 2 2 1 3 4 4 4 4 4 4 5 5 5 6 6 6 6 6 7 6 6 5 5 3 3 2 5 6 5 5 5 5 0 1 0 3 5 4 3 6 5 2 1 3 3 3
4 6 5 6 7 7 7 7 7 7 7 6 5 7 7 8 7 6 6 6 7 6 4 4 5 4 4 4 4 3 1 1 2 3 3 3 4 4 4 6 6 6 6 5 6 6 6 5 5 4 5 5 4 3 6 5 5 4 4 2 2 1 0 1 1 3 4 3 8 9 8 5 2 4
7 7 4 5 5 5 7 7 8 7 7 7 7 7 7 7 7 6 5 5 5 5 5 4 4 5 5 4 4 3 4 2 2 2 2 4 4 5 5 5 6 6 6 5 5 6 6 6 5 4 3 5 3 4 5 4 4 4 2 2 2 1 0 1 3 4 4 4 7 11 9 7 4 3
Wind_Direction
76 60 52 59 46 35 43 44 61 78 73 71 93 147 163 160 129 128 106 139 137 212 119 129 221 135 135 134 140 137 151 152 143 130 124 131 132 134 123 126 124 121 123 123 118 109 102 90 77 65 59 55 49 38 30 27 12 17 25 16 7 14 21 15 6 359 13 18 16 7 359 0 358 344
71 58 38 29 32 3 38 30 39 50 67 81 114 138 123 132 135 142 130 119 356 155 345 109 138 151 143 149 156 158 172 173 147 150 145 146 162 160 148 144 140 137 140 140 139 137 129 115 95 79 74 69 62 26 5 16 10 9 20 13 7 4 18 17 11 4 8 7 5 6 0 354 349 344
86 75 61 40 38 17 24 13 11 22 56 96 82 59 67 96 116 123 124 106 329 137 132 290 141 150 171 163 165 173 176 182 165 157 158 168 171 163 171 166 163 165 167 163 163 161 158 150 149 156 170 155 181 207 319 351 2 8 10 11 1 3 13 15 13 3 6 4 1 2 354 350 346 342
97 82 65 57 55 34 40 23 14 19 26 36 61 63 76 85 98 101 94 107 110 235 155 155 156 154 148 158 159 177 155 176 173 158 171 171 167 173 179 185 179 178 178 183 187 178 164 171 169 173 189 235 254 245 257 295 359 3 0 355 352 354 6 16 15 6 4 1 359 358 352 348 345 339
85 83 76 58 47 53 48 28 27 32 27 48 77 72 83 89 103 110 110 111 123 56 151 140 148 138 130 167 187 173 162 171 202 164 147 159 184 196 187 183 192 194 205 205 205 202 188 181 178 176 198 220 249 264 257 254 245 235 249 277 316 335 3 11 10 2 359 359 1 356 350 348 342 336
96 107 92 64 49 55 62 38 43 47 33 20 71 87 91 91 90 108 105 132 132 179 324 84 127 125 163 165 220 172 183 202 220 151 145 183 212 201 183 180 201 207 212 219 226 226 228 208 194 196 209 221 239 252 256 251 239 240 239 238 239 314 2 360 0 355 350 352 354 354 351 347 342 336
109 99 106 99 84 58 49 45 50 61 52 44 56 53 70 96 101 77 110 118 114 151 197 223 162 147 107 160 207 225 200 196 174 161 170 200 218 200 170 202 220 210 216 223 232 234 236 240 227 222 227 230 237 252 261 253 241 236 240 239 224 204 181 248 319 321 332 341 344 344 348 345 340 333
44 59 79 69 60 78 76 66 56 60 72 58 52 56 50 64 61 88 88 102 136 161 132 270 201 213 148 252 212 215 140 116 154 193 196 179 201 187 187 211 222 217 214 224 230 239 244 251 252 244 250 249 250 258 265 266 255 238 234 229 212 204 217 222 240 272 309 319 326 332 342 342 335 331
46 81 79 55 64 76 81 66 73 75 79 68 62 57 48 55 48 50 78 93 92 102 111 114 339 0 2 196 229 216 128 280 319 31 114 149 174 188 220 219 225 225 215 223 236 246 255 267 269 263 260 261 260 260 263 266 263 252 238 222 207 201 209 215 221 246 265 277 290 323 336 337 330 328
114 94 52 51 66 84 96 99 84 86 91 88 74 56 52 61 54 54 46 80 95 97 92 115 44 360 5 356 93 174 148 115 30 12 12 38 43 75 33 338 181 168 183 210 246 261 260 259 261 265 265 266 266 265 264 264 262 253 242 227 209 201 206 212 223 234 247 258 275 284 317 318 320 324
158 144 122 59 47 88 114 111 118 119 92 104 107 104 96 72 72 63 56 62 77 99 110 64 145 197 294 234 184 345 109 97 118 104 32 7 328 356 34 342 330 195 218 251 245 246 242 252 264 274 274 274 274 268 266 273 274 254 236 225 214 207 206 210 220 231 241 253 261 272 272 289 306 316
197 148 134 113 72 79 83 100 79 93 115 101 83 72 95 91 86 82 80 75 76 72 68 121 221 243 215 332 310 342 42 48 19 75 132 130 283 322 293 225 336 358 50 27 12 319 274 283 278 277 271 267 281 301 306 302 293 265 233 220 214 214 212 211 212 222 242 257 270 274 274 269 277 302
203 138 147 134 130 108 100 93 96 92 99 107 95 57 95 88 90 84 66 70 73 66 86 345 354 358 334 299 54 53 64 119 154 329 53 33 352 337 9 337 35 47 36 7 1 344 352 310 300 307 327 325 321 307 308 311 306 288 240 220 218 219 218 212 215 227 242 258 270 275 278 279 279 276
208 151 141 151 128 120 109 100 91 86 82 81 94 111 85 87 86 98 114 100 111 98 73 44 34 29 330 316 283 107 41 66 60 57 47 50 323 26 13 322 326 6 29 7 348 326 327 337 326 328 317 300 305 293 307 307 287 278 242 224 222 223 220 217 217 228 242 250 258 264 270 282 293 285
185 187 169 147 134 124 103 96 100 100 99 97 91 81 76 77 107 110 88 72 91 105 97 72 66 61 38 22 359 54 49 18 56 76 79 67 45 58 43 325 315 334 27 340 328 307 300 327 308 301 290 285 291 301 291 287 292 283 269 238 227 223 219 217 221 230 239 245 250 257 263 272 284 285
181 168 153 145 147 143 133 129 107 94 100 107 108 102 93 82 66 75 114 125 79 94 98 72 78 89 72 29 23 0 35 26 39 36 71 68 74 45 26 288 282 276 336 321 309 294 295 312 291 292 286 292 297 302 325 326 322 323 309 266 235 225 219 217 223 234 243 246 247 256 262 261 264 270
174 141 138 142 79 71 118 122 122 125 110 105 105 102 100 101 111 106 95 101 127 142 113 123 74 84 135 85 38 343 83 93 76 29 49 48 69 144 261 254 272 300 307 330 294 279 288 306 303 309 299 315 314 321 346 8 357 324 300 266 243 229 220 220 230 241 251 253 255 259 265 262 259 263
134 146 139 109 88 71 71 86 111 109 114 123 121 114 102 102 92 84 88 98 104 111 142 146 136 319 114 135 163 318 71 101 116 81 342 263 336 306 271 252 266 276 303 289 298 308 293 306 344 315 304 329 343 346 340 351 358 352 331 309 289 267 243 240 248 260 268 274 267 270 277 277 269 267
64 100 110 103 101 86 71 59 75 99 116 121 116 113 109 97 83 76 65 67 87 90 88 102 120 135 129 140 162 161 122 136 163 171 195 224 229 253 288 321 290 297 299 337 45 272 282 331 24 319 315 335 347 334 343 6 22 24 21 12 350 319 294 280 282 286 292 294 286 285 285 284 279 277
76 91 104 104 101 92 79 51 82 102 118 114 125 120 116 103 82 62 18 3 61 100 116 128 143 161 167 167 174 175 151 135 105 48 4 28 42 43 18 318 303 315 299 347 7 329 308 325 14 319 319 354 344 336 8 9 21 26 25 18 9 353 323 308 303 302 305 305 300 293 293 297 301 311
91 94 99 106 102 94 79 81 74 75 98 96 127 139 107 76 67 57 26 35 61 85 113 131 143 160 167 177 172 166 156 147 158 82 33 330 72 39 338 301 331 283 301 13 5 326 340 344 1 342 329 338 314 347 4 358 25 31 25 15 5 1 352 340 330 331 337 337 330 318 309 306 305 298
97 111 121 116 112 104 93 72 71 75 74 71 76 122 116 88 79 69 207 124 62 135 135 136 165 186 212 226 209 198 183 169 155 126 259 236 128 301 202 256 274 296 9 13 330 36 318 329 3 357 309 335 324 1 9 9 4 4 3 7 7 1 356 354 350 348 345 345 346 338 326 315 306 299
102 93 102 117 119 117 109 90 87 85 85 81 81 105 107 99 79 341 264 158 99 68 36 336 345 322 283 248 257 264 222 182 189 179 215 213 89 295 337 328 332 350 318 346 356 23 314 20 335 22 351 338 291 16 20 7 355 353 346 351 349 343 352 351 347 339 338 346 348 336 322 315 319 306
86 104 100 103 117 114 103 99 96 96 99 102 99 94 101 104 102 270 74 138 165 149 142 290 286 287 316 314 299 321 2 34 14 16 25 54 85 67 302 317 223 228 254 326 9 52 272 64 322 358 99 317 308 311 6 338 329 326 330 344 340 329 339 343 338 330 331 339 332 327 323 320 322 303
140 133 126 118 129 114 110 108 108 105 103 106 103 106 119 136 191 239 62 338 24 16 325 328 346 329 336 8 30 50 47 49 86 130 172 185 198 187 138 298 324 270 264 281 316 84 307 294 300 317 306 190 248 309 283 293 276 279 300 321 311 310 325 320 320 316 319 323 323 322 320 324 330 338
146 152 154 152 148 123 117 117 116 114 110 108 102 110 126 124 81 64 29 293 346 349 323 335 355 4 43 66 52 39 33 18 29 136 221 236 251 200 188 147 3 356 292 287 333 67 321 310 252 297 267 279 276 240 305 297 267 248 265 281 274 282 301 308 316 312 312 310 312 309 301 307 311 318
161 150 144 146 146 124 122 118 119 118 117 106 119 127 116 113 113 136 54 25 15 2 10 55 24 35 69 71 57 47 37 5 346 344 344 354 11 12 2 358 259 257 258 278 282 257 228 267 262 294 289 264 292 302 280 305 304 293 302 280 285 293 296 304 306 306 306 307 303 303 306 309 315 315
147 148 148 152 145 123 120 118 117 118 110 117 119 101 88 65 66 58 46 25 25 62 44 31 44 70 77 96 65 49 51 55 51 59 46 19 1 355 347 341 333 280 275 286 321 7 42 330 305 289 283 303 306 307 307 277 275 298 309 306 293 285 291 296 300 302 302 306 310 316 321 314 307 305
150 142 140 142 133 124 119 115 106 99 107 109 99 92 85 86 57 57 47 71 70 50 42 52 68 71 76 90 105 97 63 51 43 39 22 17 16 358 19 357 354 346 343 339 345 340 350 340 314 309 311 296 297 291 292 296 299 296 300 318 316 306 300 293 286 293 305 308 303 306 303 306 307 304
123 131 136 131 123 119 121 116 118 125 138 134 112 115 114 86 95 92 103 82 74 53 21 37 84 116 117 93 108 80 61 53 37 36 23 15 360 359 357 0 348 338 338 334 336 331 333 329 313 305 303 296 284 289 287 298 297 290 289 287 286 299 266 265 297 294 293 293 296 297 298 303 304 310
121 130 134 138 135 127 134 133 138 126 113 95 107 169 162 162 158 174 163 117 93 80 91 87 95 104 103 83 41 42 55 54 26 47 44 26 346 356 342 2 337 342 324 321 315 314 317 316 312 316 311 304 296 275 279 278 288 294 291 272 280 291 295 302 290 290 285 287 289 298 305 315 312 309
118 121 110 107 101 99 90 96 90 93 103 128 132 235 37 182 223 230 64 78 88 98 117 121 104 35 44 66 88 74 83 99 46 40 35 13 333 335 347 350 319 311 314 314 315 312 317 308 308 305 290 286 293 299 293 279 283 290 291 293 283 277 283 293 296 292 286 284 302 301 299 299 305 310
96 95 102 105 114 113 124 125 139 142 125 268 266 276 285 318 100 121 105 102 123 142 118 120 124 119 92 73 83 90 58 42 54 39 32 310 297 293 297 299 297 317 321 321 322 317 315 312 303 297 292 290 280 292 306 306 289 282 290 298 301 294 295 291 286 294 317 319 300 301 301 300 297 304
119 120 128 149 159 165 159 158 174 193 195 217 239 271 231 153 116 114 113 135 162 151 132 146 113 127 125 123 99 108 113 345 341 293 355 300 293 295 299 300 294 295 302 308 317 312 315 312 317 310 300 289 279 274 276 275 286 293 294 296 296 297 298 307 310 316 323 316 317 312 310 308 298 293
128 124 141 191 196 196 182 182 192 194 190 203 189 204 208 150 155 150 143 174 160 156 160 149 138 137 132 147 162 92 154 208 281 313 298 266 275 270 274 282 291 302 309 308 309 313 319 326 328 323 317 320 318 275 238 246 266 287 304 300 292 304 309 314 315 312 313 314 328 303 301 293 297 293
143 151 180 195 203 198 194 217 204 188 194 193 179 182 180 190 211 164 214 162 137 141 104 109 114 127 131 153 168 183 196 190 257 278 286 300 300 293 295 290 299 297 301 304 310 316 321 318 321 319 319 319 325 319 324 288 303 3 325 311 317 310 303 307 307 303 305 305 297 299 300 308 303 306
166 188 188 192 198 191 210 213 197 193 178 164 163 157 162 179 213 155 141 118 92 115 150 144 160 177 170 177 186 198 201 217 270 312 327 318 321 327 337 329 320 308 314 307 306 306 309 308 309 309 308 307 311 313 303 312 296 277 250 294 309 303 298 303 305 305 291 276 293 283 285 292 292 291
172 177 192 198 199 207 211 196 179 168 162 153 142 143 144 146 131 127 134 101 121 125 126 138 186 193 190 181 187 256 279 328 22 8 342 6 27 11 352 325 310 311 312 308 306 300 296 290 293 294 294 299 304 308 314 320 326 316 120 6 294 297 299 300 302 302 306 301 275 286 298 293 288 297
156 170 195 204 208 201 189 183 169 158 157 145 139 138 126 121 119 133 113 115 123 106 84 55 2 349 300 292 274 268 330 14 22 34 47 45 29 1 331 319 319 317 318 310 305 298 293 287 285 281 279 285 291 290 288 297 291 290 306 329 258 272 276 262 282 294 302 315 326 314 281 261 272 276
187 182 197 200 198 179 169 164 157 151 147 152 151 153 135 135 132 131 142 135 105 100 85 72 74 69 51 42 35 35 54 52 59 60 53 27 350 324 313 315 307 303 306 300 301 301 299 292 287 281 278 268 266 266 267 265 270 280 284 314 296 230 246 259 281 310 319 352 326 318 314 321 331 332
194 192 193 171 159 156 152 154 146 140 142 137 126 127 131 140 134 146 140 146 138 92 70 70 75 76 69 58 52 69 69 44 36 13 7 357 326 306 298 302 302 296 295 296 295 298 296 291 286 283 276 269 271 298 294 284 287 292 303 290 47 28 47 57 72 66 10 317 315 306 314 322 324 328
171 150 133 153 148 148 137 138 138 131 131 135 132 133 145 149 170 163 141 100 75 86 81 75 79 79 71 66 67 72 93 78 11 344 337 317 302 306 300 293 288 294 289 290 293 289 287 291 292 291 290 292 293 279 277 278 280 294 289 309 60 18 76 87 93 102 104 350 336 336 330 316 336 343
76 61 161 165 144 140 138 139 135 128 125 121 138 137 92 58 55 57 71 85 84 72 78 81 84 85 78 61 43 83 92 18 335 306 298 297 296 295 303 302 291 286 280 278 278 280 287 294 299 304 299 284 245 208 269 280 284 283 289 300 261 32 355 129 128 132 83 45 25 351 300 285 311 335
155 160 187 158 138 130 123 120 119 119 125 120 96 76 84 87 79 73 74 71 67 72 77 86 72 59 39 15 355 335 283 240 289 318 301 287 294 296 298 301 300 295 290 283 288 294 297 299 296 296 307 300 291 278 278 284 289 276 273 282 91 112 304 292 304 300 290 308 12 11 9 11 306 285
102 92 75 63 66 94 112 113 103 95 87 87 87 88 88 89 92 82 69 69 68 65 63 58 47 33 22 10 13 344 315 321 326 284 303 327 319 316 312 304 303 300 295 290 294 300 306 308 304 296 255 271 260 254 270 263 265 284 290 125 136 176 343 30 40 2 352 0 5 9 15 17 19 35